Powrót do katalogu

CENTISPACE-2 S3

AktywnyNawigacjaLEO
NORAD 68352·PAYLOAD·🇨🇳 China

Wystrzelony Mar 22, 2026 z Yellow Sea Launch Area

Loading…

Następne Przeloty (najbliższe 24 godziny)

TLE

ŚwieżeSource: Space-Track

Epoka: Sep 14, 2026, 10:36 UTC

1 68352U 26060C   26257.44202523  .00000076  00000-0  97235-4 0  9995
2 68352  54.9818  48.7544 0008914 269.4849  90.5107 14.26163120 25675

Śledź CENTISPACE-2 S3 w czasie rzeczywistym z AllMySat

Download on the App Store